Current weather by "City, St" or "zip code"  
 

Current Conditions: SEDONA

Clear


62.6 F

Last Updated on May 25 2024, 11:55 PM MST
Humidity: 27%
Wind Speed: 3.4 mph
Barometer 30.03 in
Dewpoint: 28.4 F
Visibility: 10.00 mi
Precip: --
Heat Index: NA
Wind Chill: NA
Current conditions at:

SEDONA (KSEZ)

Lat: 34.85 Lon: 111.78

active severe weather and emergency alerts image image weather storm and storm spotter reports image weather observation monitoring service image
Active
Alerts
Storm Reports Obs
Monitoring

Sign-up For Email & Text Message Weather Alert Notification Services



Advertise Here

Observation History for SEDONA


Time Wind
(mph)
Vis
(mi)
Weather Precip (in) Temperature (F) Relative
Humidity
Wind
Chill
(F)
Heat
Index
(F)
Pressure
Air Dwpt altimeter
(in)
sea level
(mb)
Rmks
11:55 PM MST 3.4 10.00 Clear -- 62.6 28.4 27% NA NA 30.03 1016.9
11:35 PM MST SE 4.7 10.00 Clear -- 60.8 28.4 29% NA NA 30.03 1016.9
10:35 PM MST 3.4 10.00 Clear -- 62.6 28.4 27% NA NA 30.03 1016.9
09:55 PM MST 5.8 10.00 Clear -- 64.4 28.4 26% NA NA 30.03 1016.9
09:35 PM MST S 6.9 10.00 Clear -- 64.4 28.4 26% NA NA 30.02 1016.6
09:15 PM MST S 8.1 10.00 Clear -- 64.4 28.4 26% NA NA 30.01 1016.3
08:55 PM MST S 9.2 10.00 Clear -- 66.2 28.4 24% NA NA 30.00 1015.9
08:35 PM MST 11.4 10.00 Clear -- 66.2 28.4 24% NA NA 29.99 1015.6
07:35 PM MST S 11.4 10.00 Clear -- 68.0 28.4 23% NA NA 29.96 1014.6
07:15 PM MST 13.9 10.00 Clear -- 69.8 28.4 21% NA NA 29.95 1014.2
06:55 PM MST 10.00 Clear -- 69.8 28.4 21% NA NA 29.94 1013.9
06:35 PM MST 10.00 Clear -- 71.6 30.2 22% NA 69.4 29.94 1013.6
06:15 PM MST 10.00 Clear -- 71.6 30.2 22% NA 69.4 29.92 1013.2
05:55 PM MST 11.4 10.00 Clear -- 73.4 28.4 19% NA 71.2 29.92 1013.2
04:35 PM MST 10.00 Clear -- 77.0 28.4 17% NA 75.2 29.92 1013.2
04:15 PM MST 13.9 10.00 Clear -- 77.0 28.4 17% NA 75.2 29.92 1013.2
03:55 PM MST S 18.3 10.00 Clear -- 77.0 28.4 17% NA 75.2 29.92 1013.2
03:35 PM MST 10.00 Clear -- 77.0 28.4 17% NA 75.2 29.92 1013.2
02:55 PM MST S 17.2 10.00 Clear -- 77.0 28.4 17% NA 75.2 29.92 1013.2
02:35 PM MST 10.00 Clear -- 77.0 28.4 17% NA 75.2 29.92 1013.2
02:15 PM MST 10.00 NULL -- NULL % NA NA M
01:55 PM MST S 17.2 10.00 Clear -- 77.0 28.4 17% NA 75.2 29.94 1013.6
01:35 PM MST 19.7 10.00 Clear and Windy -- 77.0 28.4 17% NA 75.2 29.94 1013.6
12:55 PM MST S 19.7 10.00 Clear and Windy -- 75.2 28.4 18% NA 73.2 29.94 1013.6

Regional Weather Observation


SEDONA (KSEZ)

Clear
62.6 F

WILLIAMS CLARK (KCMR)

Clear
48.2 F

PRESCOTT (KPRC)

Clear
57.9 F

GRAND CANYON (KGCN)

Clear
NULL F

PAYSON (KPAN)

Clear
51.8 F

WINSLOW (KINW)

Clear
59.0 F

Advertise Here


Advertise Here